TimeEDT,TemperatureF,Dew PointF,Humidity,Sea Level PressureIn,VisibilityMPH,Wind Direction,Wind SpeedMPH,Gust SpeedMPH,PrecipitationIn,Events,Conditions,WindDirDegrees,DateUTC
12:53 AM,79.0,72.0,79,29.82,9.0,SSW,11.5,-,N/A,,Clear,210,2013-07-20 04:53:00
1:53 AM,79.0,72.0,79,29.80,8.0,SSW,11.5,-,N/A,,Clear,210,2013-07-20 05:53:00
2:53 AM,79.0,71.1,77,29.78,8.0,SW,11.5,-,N/A,,Clear,220,2013-07-20 06:53:00
3:53 AM,79.0,71.1,77,29.77,9.0,SW,15.0,20.7,N/A,,Clear,230,2013-07-20 07:53:00
4:53 AM,78.1,71.1,79,29.74,10.0,SSW,15.0,-,N/A,,Clear,210,2013-07-20 08:53:00
5:22 AM,78.8,71.6,78,29.79,10.0,SW,11.5,19.6,N/A,Thunderstorm,Scattered Clouds,230,2013-07-20 09:22:00
5:53 AM,73.0,69.1,87,29.83,9.0,NW,21.9,29.9,0.00,Rain-Thunderstorm,Light Thunderstorms and Rain,320,2013-07-20 09:53:00
6:04 AM,71.6,66.2,83,29.86,4.0,North,18.4,36.8,0.04,Rain-Thunderstorm,Light Thunderstorms and Rain,350,2013-07-20 10:04:00
6:08 AM,71.6,66.2,83,29.87,2.5,NNW,26.5,44.9,0.10,Rain-Thunderstorm,Light Thunderstorms and Rain,340,2013-07-20 10:08:00
6:10 AM,69.8,68.0,94,29.86,1.8,NW,23.0,44.9,0.16,Rain-Thunderstorm,Heavy Thunderstorms and Rain,320,2013-07-20 10:10:00
6:40 AM,69.8,68.0,94,29.86,2.0,West,11.5,-,0.78,Rain-Thunderstorm,Heavy Thunderstorms and Rain,270,2013-07-20 10:40:00
6:53 AM,70.0,68.0,93,29.83,2.5,SW,8.1,-,0.87,Rain-Thunderstorm,Heavy Thunderstorms and Rain,220,2013-07-20 10:53:00
7:05 AM,69.8,68.0,94,29.86,3.0,WSW,3.5,-,0.04,Rain-Thunderstorm,Thunderstorms and Rain,250,2013-07-20 11:05:00
7:53 AM,71.1,69.1,93,29.81,4.0,South,6.9,-,0.14,Rain-Thunderstorm,Rain,170,2013-07-20 11:53:00
8:06 AM,71.6,69.8,94,29.88,2.0,SW,10.4,-,0.08,Rain-Thunderstorm,Heavy Thunderstorms and Rain,220,2013-07-20 12:06:00
8:13 AM,71.6,69.8,94,29.89,0.8,West,29.9,40.3,0.45,Rain-Thunderstorm,Heavy Thunderstorms and Rain,270,2013-07-20 12:13:00
8:31 AM,69.8,66.2,88,29.85,1.5,Calm,Calm,-,1.00,Rain-Thunderstorm,Heavy Thunderstorms and Rain,0,2013-07-20 12:31:00
8:36 AM,69.8,66.2,88,29.86,3.0,West,8.1,-,1.00,Rain-Thunderstorm,Light Thunderstorms and Rain,260,2013-07-20 12:36:00
8:41 AM,69.8,66.2,88,29.86,1.8,SW,4.6,-,1.07,Rain-Thunderstorm,Heavy Rain,220,2013-07-20 12:41:00
8:51 AM,69.8,66.2,88,29.86,2.5,SW,4.6,-,1.11,Rain-Thunderstorm,Light Thunderstorms and Rain,230,2013-07-20 12:51:00
8:53 AM,70.0,66.9,90,29.83,4.0,SW,4.6,-,1.12,Rain-Thunderstorm,Thunderstorms and Rain,220,2013-07-20 12:53:00
9:14 AM,69.8,68.0,94,29.86,6.0,SSE,9.2,-,0.07,Rain-Thunderstorm,Light Rain,150,2013-07-20 13:14:00
9:19 AM,69.8,69.8,100,29.87,8.0,SSE,6.9,-,0.07,Rain-Thunderstorm,Light Rain,160,2013-07-20 13:19:00
9:34 AM,69.8,69.8,100,29.87,10.0,South,6.9,-,0.07,,Overcast,190,2013-07-20 13:34:00
9:53 AM,70.0,68.0,93,29.85,10.0,South,8.1,-,0.07,Rain-Thunderstorm,Light Rain,180,2013-07-20 13:53:00
10:31 AM,71.6,69.8,94,29.87,6.0,SSW,6.9,-,0.03,Rain,Light Rain,210,2013-07-20 14:31:00
10:49 AM,71.6,69.8,94,29.87,10.0,SSW,9.2,-,0.03,,Overcast,210,2013-07-20 14:49:00
10:53 AM,72.0,70.0,93,29.84,10.0,SW,9.2,-,0.03,,Overcast,220,2013-07-20 14:53:00
11:18 AM,73.4,69.8,88,29.87,10.0,SSW,9.2,-,N/A,,Scattered Clouds,210,2013-07-20 15:18:00
11:28 AM,73.4,69.8,88,29.88,10.0,SW,12.7,-,N/A,,Mostly Cloudy,220,2013-07-20 15:28:00
11:53 AM,75.9,70.0,82,29.84,10.0,SW,11.5,-,N/A,,Mostly Cloudy,220,2013-07-20 15:53:00
12:36 PM,73.4,69.8,88,29.88,10.0,SSW,10.4,-,N/A,,Scattered Clouds,210,2013-07-20 16:36:00
12:53 PM,75.0,70.0,84,29.85,10.0,SSW,8.1,-,N/A,,Clear,210,2013-07-20 16:53:00
1:53 PM,79.0,72.0,79,29.84,10.0,WSW,10.4,-,N/A,,Scattered Clouds,240,2013-07-20 17:53:00
2:03 PM,80.6,73.4,79,29.87,10.0,WSW,10.4,-,N/A,,Mostly Cloudy,250,2013-07-20 18:03:00
2:27 PM,80.6,73.4,79,29.86,10.0,West,12.7,-,N/A,,Mostly Cloudy,260,2013-07-20 18:27:00
2:53 PM,82.0,73.0,74,29.82,10.0,West,9.2,-,N/A,,Mostly Cloudy,260,2013-07-20 18:53:00
3:15 PM,82.4,73.4,74,29.84,10.0,WSW,8.1,-,N/A,,Scattered Clouds,240,2013-07-20 19:15:00
3:53 PM,84.0,73.0,69,29.81,10.0,WSW,10.4,-,N/A,,Partly Cloudy,240,2013-07-20 19:53:00
4:53 PM,84.0,72.0,67,29.82,10.0,WSW,9.2,-,N/A,,Partly Cloudy,250,2013-07-20 20:53:00
5:08 PM,75.2,64.4,69,29.86,1.5,NNW,10.4,24.2,0.12,Rain,Heavy Rain,340,2013-07-20 21:08:00
5:18 PM,75.2,66.2,73,29.85,3.0,ENE,5.8,-,0.13,Rain,Light Rain,70,2013-07-20 21:18:00
5:53 PM,80.1,71.1,74,29.82,10.0,South,4.6,-,0.13,,Scattered Clouds,180,2013-07-20 21:53:00
6:53 PM,80.1,73.0,79,29.82,10.0,SSW,3.5,-,N/A,,Partly Cloudy,210,2013-07-20 22:53:00
7:53 PM,78.1,70.0,76,29.84,10.0,SW,4.6,-,N/A,,Clear,220,2013-07-20 23:53:00
8:53 PM,75.0,70.0,84,29.85,10.0,SSW,4.6,-,N/A,,Clear,200,2013-07-21 00:53:00
9:53 PM,73.9,70.0,87,29.88,10.0,West,6.9,-,N/A,,Partly Cloudy,280,2013-07-21 01:53:00
10:53 PM,72.0,68.0,87,29.89,10.0,WSW,5.8,-,N/A,,Clear,250,2013-07-21 02:53:00
11:53 PM,72.0,68.0,87,29.89,10.0,Calm,Calm,-,N/A,,Clear,0,2013-07-21 03:53:00